Wind_Speed
42 41 43 45 45 46 47 49 49 49 48 49 49 49 49 50 48 46 46 47 49 49 51 52 51 51 52 53 54 55 57 58 58 59 60 61 61 62 63 64 65 66 67 67 67 67 67 66 66 66 66 66 66 66 66 66 65 66 66 67 68 68 68 69 69 70 71 72 74 74 74 74 76 77 74 72 73 74 72 70 67 65 67 70 70 66 66 67
41 40 42 44 45 46 47 49 49 49 49 48 48 47 48 47 47 46 45 45 46 47 48 49 48 49 50 50 51 52 54 55 55 56 56 57 58 59 60 61 62 63 64 64 64 64 64 63 63 63 63 63 62 62 62 63 63 63 65 67 67 67 68 70 70 70 72 73 73 74 75 75 74 74 73 70 70 73 71 69 68 67 68 69 68 65 63 64
40 40 41 43 44 46 47 48 48 48 48 47 47 46 46 46 46 45 44 44 45 46 45 46 47 48 48 49 50 51 51 52 52 52 53 54 55 56 57 58 60 61 61 61 61 60 60 60 59 58 58 57 58 59 59 61 62 63 65 67 67 68 69 71 70 70 72 73 73 74 75 74 72 70 70 69 70 72 70 69 70 69 68 67 66 63 60 62
39 40 41 42 43 45 45 47 47 47 46 46 46 45 45 45 45 44 44 44 44 44 44 44 46 46 47 48 49 50 49 49 49 48 49 50 52 54 55 57 58 58 57 56 56 55 55 54 54 54 54 54 56 58 58 60 63 64 66 67 68 69 70 72 71 70 72 72 71 72 72 71 70 69 69 69 69 71 71 70 69 68 66 65 64 62 58 58
40 41 41 41 42 43 44 45 45 46 45 45 44 45 44 44 43 42 42 41 42 44 43 44 44 45 46 47 48 48 47 47 47 46 48 49 50 52 53 54 53 52 51 50 50 50 51 51 52 53 54 55 57 59 60 61 64 66 68 68 69 70 70 71 70 70 70 69 69 69 69 69 68 69 70 69 69 71 71 69 67 66 65 64 62 60 58 56
40 41 40 40 40 41 42 43 43 43 43 44 44 43 43 41 40 40 40 40 42 43 43 43 43 44 45 46 46 45 45 46 46 48 49 50 50 50 50 50 48 47 47 48 49 50 51 52 53 55 56 58 59 61 62 64 66 68 69 69 69 70 70 69 68 67 66 66 67 67 68 68 68 70 71 70 70 70 69 67 66 65 63 62 60 59 58 57
40 41 39 37 38 39 41 42 41 40 40 41 42 41 40 39 38 38 39 40 41 42 43 42 42 42 43 42 41 42 42 42 44 46 47 47 47 47 47 46 46 46 48 50 51 52 54 55 56 57 59 60 62 63 64 66 67 68 69 68 68 68 66 65 65 63 63 65 67 67 68 68 68 70 71 70 70 68 67 66 64 64 62 61 60 59 59 59
40 40 35 34 35 37 40 39 36 36 37 38 39 38 38 37 37 37 38 40 40 40 40 39 38 39 38 36 35 36 37 38 41 41 41 40 41 41 42 43 45 47 50 52 53 55 57 58 59 60 61 62 63 64 64 65 65 65 66 65 64 63 62 61 61 62 63 65 67 68 69 68 68 69 70 70 69 67 66 65 64 63 62 61 61 60 60 59
39 36 32 32 35 37 37 33 32 34 35 36 36 36 36 36 36 36 37 38 38 37 35 34 34 34 35 34 33 34 35 36 37 37 37 38 39 40 42 44 47 49 51 53 55 56 58 59 60 61 61 62 62 62 62 62 61 61 61 61 61 60 60 60 60 62 63 65 67 69 70 68 68 68 69 69 68 67 65 64 63 63 62 62 62 61 60 59
37 32 31 33 34 34 33 30 31 33 33 33 33 33 34 35 35 36 36 36 36 34 32 31 32 33 33 34 35 36 38 38 37 37 38 40 42 44 45 47 49 51 53 55 56 57 58 60 60 60 60 60 60 60 59 59 59 58 57 59 60 59 60 60 61 62 64 66 66 68 70 69 68 68 68 68 67 66 65 64 63 63 63 63 62 61 60 59
33 30 32 33 32 32 31 31 32 32 31 31 30 31 32 33 34 35 35 35 34 32 31 32 32 33 34 35 36 38 39 40 40 42 43 44 46 47 49 51 52 54 55 57 58 58 59 59 59 58 58 58 57 57 57 57 56 56 56 59 59 59 61 61 61 63 64 65 66 68 70 70 68 68 67 67 66 66 65 65 63 63 64 63 63 62 60 59
30 30 32 32 31 31 31 31 31 31 31 30 30 31 31 31 31 32 33 32 31 30 29 31 32 33 35 36 38 39 41 41 42 44 46 48 49 51 52 53 54 55 56 57 57 57 57 57 57 56 56 56 55 55 56 55 55 56 57 59 60 60 62 62 62 63 64 65 66 67 71 72 69 68 68 66 65 65 65 65 64 64 65 65 64 63 61 60
29 31 33 32 32 31 31 31 30 30 29 29 28 27 27 26 26 27 27 27 26 26 26 28 31 33 35 37 39 41 42 44 45 46 47 48 49 50 51 52 53 53 54 54 54 55 55 55 55 55 55 54 54 54 55 55 56 57 58 60 61 61 62 64 63 63 64 65 66 67 71 74 71 69 69 66 64 65 65 65 65 65 66 66 65 65 64 63
30 32 33 33 32 32 31 30 29 28 26 25 23 21 21 22 22 22 22 22 22 23 24 27 30 33 36 37 39 40 42 44 45 45 45 46 47 48 49 50 50 51 51 51 52 53 53 54 54 53 53 52 53 54 55 56 57 58 59 60 62 63 63 64 64 63 63 64 65 66 70 76 75 71 68 65 64 66 66 65 65 66 67 67 67 66 66 65
32 33 33 34 33 33 32 31 29 27 25 21 18 16 17 18 19 20 22 23 24 26 28 30 32 35 37 38 40 41 42 43 42 43 44 45 45 45 46 47 48 49 49 49 50 51 51 52 52 51 52 52 53 55 57 58 58 59 61 62 63 64 64 64 65 65 63 63 65 66 69 75 79 76 69 64 65 67 67 66 65 66 67 68 68 68 68 67
34 34 34 34 33 33 32 30 28 27 24 19 15 16 18 20 22 24 26 28 29 32 33 34 36 37 39 40 42 42 43 43 43 44 45 44 44 44 45 46 47 47 48 48 49 50 50 51 51 51 52 54 55 56 59 60 60 61 63 64 64 64 64 64 64 64 64 64 65 66 68 74 80 79 73 68 67 68 69 68 68 67 67 68 69 70 70 69
35 35 35 34 33 33 31 28 27 27 25 20 19 22 24 26 29 30 32 33 34 35 36 37 38 40 41 42 43 43 43 44 45 45 44 43 43 44 45 45 46 46 47 48 48 49 50 51 52 52 53 55 56 58 60 62 62 62 63 64 65 64 64 65 64 63 65 67 66 67 68 72 79 78 74 72 71 72 72 71 70 70 70 70 71 71 71 71
35 35 34 34 34 33 30 28 28 28 25 22 25 29 31 33 34 35 36 37 37 39 39 40 41 42 42 43 43 43 44 44 44 43 43 43 43 44 45 45 46 46 47 48 49 50 51 53 54 53 55 57 59 60 62 64 64 64 63 63 64 65 65 68 66 62 65 68 68 69 69 71 76 77 74 73 75 75 75 74 74 74 74 74 74 74 73 72
35 35 34 34 33 31 28 29 30 29 26 26 30 34 37 38 38 38 38 39 40 41 42 42 42 43 43 43 43 42 42 42 43 43 43 43 44 44 45 45 46 47 48 49 50 51 52 55 56 55 57 59 61 62 63 65 65 65 64 63 63 64 66 70 69 65 67 68 68 70 72 72 75 76 73 73 76 77 78 78 78 78 78 78 79 79 77 76
35 35 34 34 31 28 27 28 29 30 31 33 35 38 40 40 40 39 39 40 41 42 43 43 42 42 42 41 41 41 42 42 43 43 43 44 44 45 45 46 47 48 49 49 52 53 54 56 58 58 59 60 62 63 64 65 66 65 65 65 65 65 66 70 70 68 69 70 69 71 73 73 75 75 73 74 76 78 79 80 80 81 81 82 83 84 84 82
34 34 34 33 30 28 26 26 27 29 33 35 38 40 40 39 38 38 40 41 41 40 40 40 40 40 40 40 41 42 43 44 44 43 43 43 44 45 46 47 48 49 50 50 52 56 57 59 61 60 60 62 63 65 65 66 66 65 66 66 67 68 69 69 71 70 71 71 71 73 74 75 77 76 75 76 77 79 80 81 82 83 84 85 87 88 89 88
33 34 33 32 31 29 27 26 27 30 33 35 36 38 38 37 36 37 38 38 37 37 37 38 38 39 41 42 43 43 43 43 42 41 42 43 44 46 47 48 49 50 52 53 54 57 59 61 63 63 62 64 65 66 66 65 65 66 67 67 68 70 71 71 72 72 73 72 72 75 77 77 78 78 78 79 79 80 82 83 84 85 87 88 90 91 91 91
33 33 33 33 32 31 30 31 32 34 36 37 37 36 35 35 34 34 34 34 35 36 37 38 40 41 42 43 43 42 41 40 40 40 42 44 45 46 48 49 50 52 54 56 57 59 61 63 64 65 66 67 67 66 66 66 66 67 68 69 70 72 73 73 73 74 74 74 74 76 78 80 81 81 81 82 82 83 84 85 86 88 90 91 92 93 92 92
33 32 33 33 34 34 34 35 36 37 37 38 37 34 33 32 32 32 34 35 36 37 39 40 41 41 41 41 40 38 38 38 39 41 43 45 47 48 50 51 53 55 57 58 59 61 63 64 65 66 67 68 68 67 66 67 68 70 71 71 72 73 75 76 76 75 75 76 77 78 80 81 83 83 84 84 85 85 86 88 90 92 93 94 95 95 94 93
33 32 32 33 34 35 36 34 34 34 33 32 32 31 31 31 32 34 35 36 37 38 39 40 40 39 38 37 37 36 37 39 40 43 45 47 49 50 52 54 55 57 59 60 60 62 64 66 67 67 67 67 67 67 67 68 70 71 73 74 75 75 76 78 79 79 78 78 80 81 84 85 85 86 85 86 87 87 88 91 93 95 96 97 97 97 96 94
33 33 33 33 33 34 34 32 30 30 29 28 29 29 30 31 33 35 36 37 38 39 38 38 37 36 36 35 36 37 38 40 42 45 47 48 50 52 53 56 57 58 60 61 62 63 65 67 67 67 67 67 68 69 70 71 72 74 76 77 78 78 79 80 82 82 81 81 81 83 88 90 90 89 88 88 88 89 91 94 96 97 97 98 98 98 97 97
33 32 31 31 31 30 31 31 30 30 30 31 31 30 30 32 34 36 36 38 39 38 37 36 35 35 35 36 37 39 41 43 45 47 49 50 52 53 55 57 58 60 61 62 63 65 65 66 66 67 67 69 70 71 72 74 75 76 78 79 80 81 82 83 84 85 85 85 84 85 92 95 94 94 93 92 92 92 94 95 96 97 97 98 98 99 99 99
32 30 30 30 30 31 32 33 33 34 35 36 35 33 33 34 35 36 37 38 38 37 36 36 36 36 37 39 41 42 44 46 47 49 50 52 53 55 57 58 60 61 63 63 64 64 64 65 66 68 69 71 73 74 75 76 77 79 80 81 82 83 84 85 87 88 90 90 87 89 95 98 98 98 97 96 95 95 96 97 97 98 98 99 100 100 100 100
32 31 31 31 32 33 35 35 35 36 37 38 37 36 35 35 36 37 38 39 39 39 38 39 39 40 41 42 43 45 46 47 48 50 52 53 56 57 59 60 61 62 63 63 63 64 65 66 68 70 72 74 75 77 78 79 80 81 82 83 83 85 86 88 89 91 93 94 93 93 97 100 100 101 100 99 99 98 99 99 99 100 101 101 102 102 102 101
31 30 30 30 32 34 34 35 36 38 38 38 37 36 36 37 38 39 39 40 41 41 42 42 42 43 43 44 45 46 48 49 50 52 53 55 58 59 61 62 62 63 63 63 64 65 67 69 71 73 75 76 78 79 80 81 82 83 84 85 85 87 89 90 92 94 96 96 97 98 99 101 103 103 103 104 103 102 102 102 101 102 103 104 104 104 103 103
29 30 30 32 34 34 34 35 37 37 37 37 36 36 37 39 40 40 41 41 41 42 43 43 44 45 45 46 47 48 49 51 53 54 55 58 60 61 62 62 63 64 64 64 65 67 69 71 74 76 78 79 80 81 82 84 85 86 87 88 89 90 93 94 95 97 98 98 99 101 101 103 104 104 105 106 105 105 104 103 104 105 105 105 105 105 105 105
28 30 31 33 34 34 34 35 36 37 37 36 36 38 39 41 41 41 42 42 43 44 45 45 46 47 48 48 49 50 52 54 56 57 58 59 61 62 62 62 63 64 65 66 68 69 71 72 75 78 80 81 81 82 84 86 87 89 91 92 93 94 95 96 97 99 100 100 100 102 103 104 105 105 105 106 106 106 105 105 106 107 107 106 106 106 106 107
27 29 30 32 33 33 33 34 36 37 37 37 38 40 41 41 42 42 43 44 45 47 47 48 49 50 50 51 52 53 55 57 58 59 60 60 61 62 62 63 63 65 67 68 70 72 73 75 77 79 81 82 82 84 86 87 89 91 93 95 96 98 98 98 98 99 100 100 99 100 104 106 106 106 106 106 105 105 106 107 108 108 108 107 107 107 107 108
28 30 31 32 33 33 35 36 37 38 38 39 40 42 42 42 43 44 45 46 47 48 50 50 51 51 52 53 54 56 57 59 60 60 60 60 60 61 63 64 66 67 69 70 72 74 75 77 78 81 82 83 84 86 87 90 91 92 95 97 98 99 101 100 100 100 100 100 98 98 102 105 107 108 107 106 105 105 107 109 109 109 108 108 109 109 109 108
30 31 32 34 35 36 38 39 39 39 40 41 42 43 43 43 44 45 46 48 49 50 51 52 52 52 53 55 56 57 59 59 60 60 61 60 60 62 64 65 67 70 72 73 74 75 76 78 80 83 85 86 87 88 90 92 94 94 96 97 98 100 102 102 102 101 102 101 97 96 100 102 104 107 107 106 105 105 107 108 108 109 109 109 110 109 109 109
29 31 33 35 37 38 39 40 40 41 41 42 42 43 44 44 45 46 48 49 50 51 51 52 53 53 54 56 57 58 59 59 58 58 60 62 63 64 66 68 70 72 74 75 76 77 78 80 83 86 88 89 89 91 92 94 95 96 97 98 99 101 103 104 103 102 104 104 100 98 100 102 104 106 105 105 106 106 107 107 107 108 108 109 109 109 109 108
29 31 32 34 35 37 38 38 39 40 40 41 42 43 44 45 46 47 49 50 51 51 52 53 54 54 55 56 57 57 58 58 59 59 60 63 65 67 69 70 72 73 75 76 78 79 79 81 84 87 90 91 91 92 93 94 95 96 97 97 98 100 103 104 105 104 105 105 102 100 101 103 105 106 105 105 106 106 105 105 106 106 107 107 108 108 108 107
28 30 31 33 34 35 36 37 38 39 40 41 42 44 45 46 47 49 50 51 51 51 52 53 54 54 55 55 56 56 57 58 60 62 63 65 67 69 70 72 73 75 77 78 80 82 82 82 83 86 89 91 92 92 93 93 94 95 96 96 95 98 100 102 103 105 106 105 103 101 101 102 103 104 105 106 106 106 106 105 106 106 106 107 108 108 107 107
27 29 30 31 32 33 35 36 37 38 40 41 43 44 45 47 48 49 50 50 50 51 51 52 53 53 54 54 55 56 58 60 62 64 66 67 69 70 72 74 76 77 79 80 82 83 84 84 84 86 89 91 91 92 93 93 93 94 94 94 94 96 99 101 102 105 107 107 105 103 102 101 101 103 105 107 108 108 108 108 107 106 106 107 108 108 107 107
27 28 30 31 32 34 35 36 37 39 40 41 43 44 46 47 48 48 48 48 49 49 50 51 51 52 53 54 56 58 60 62 64 66 67 69 70 72 74 76 78 79 80 81 83 84 86 86 85 87 89 91 92 93 94 94 94 95 95 95 95 97 100 102 102 104 107 108 107 108 107 104 104 105 107 107 108 108 109 108 107 105 105 106 106 106 106 105
28 29 30 32 33 34 35 36 37 39 40 41 42 43 44 45 46 46 46 47 47 48 48 49 51 52 54 56 58 60 62 64 65 67 69 71 72 74 76 77 79 80 81 82 84 85 86 87 87 88 89 91 92 93 94 94 95 97 97 96 96 97 99 102 101 102 104 106 107 109 109 105 104 105 107 107 107 108 108 107 105 104 105 105 104 105 104 103
28 30 31 32 32 34 35 36 37 38 39 40 40 41 42 43 43 44 44 45 46 47 48 50 51 53 55 57 59 61 63 65 67 69 71 73 74 76 77 78 79 81 82 83 84 85 86 86 86 87 89 90 91 92 93 93 94 96 96 94 93 95 97 100 101 101 102 101 103 106 106 104 104 105 108 108 108 108 107 105 104 104 103 103 103 102 102 101
29 30 30 31 32 33 34 35 35 36 37 38 39 39 40 41 41 42 43 44 45 47 49 51 53 55 57 59 60 62 65 67 69 71 73 75 76 77 78 79 80 81 83 83 85 86 87 87 87 87 88 89 91 92 93 92 92 94 96 94 92 93 96 98 101 102 101 100 101 103 103 102 102 104 107 108 108 107 106 105 105 104 104 103 102 100 99 98
29 30 30 31 31 32 32 33 34 34 35 36 37 37 38 39 40 41 42 44 46 48 50 52 54 56 58 60 62 64 66 68 70 72 74 76 77 78 80 81 81 82 83 84 85 86 87 88 89 88 88 89 90 91 92 91 90 92 94 94 92 93 96 98 99 101 101 101 101 103 103 100 100 103 105 106 107 106 105 105 105 105 104 104 102 100 98 97
28 29 29 29 30 30 31 31 32 32 33 34 35 36 37 38 40 41 43 45 47 49 51 54 56 58 60 62 64 66 68 70 72 74 75 77 78 79 80 81 82 83 83 84 85 86 87 88 90 90 90 90 90 90 91 91 90 91 93 94 93 94 97 99 100 102 103 102 101 103 104 102 100 102 103 104 105 104 103 103 104 104 105 104 103 101 99 97
27 27 28 28 29 30 30 30 30 31 32 33 35 36 37 39 40 42 45 47 49 51 53 56 58 60 62 64 66 68 70 72 74 75 76 78 79 80 81 81 82 83 84 85 86 86 87 88 89 90 90 90 91 90 91 93 93 94 95 96 96 97 99 101 103 104 105 104 102 102 104 103 100 101 102 102 102 102 101 100 101 101 101 101 101 99 98 97
26 26 27 28 28 28 28 28 29 31 32 33 35 36 38 40 42 44 46 48 51 53 56 58 60 62 64 66 68 70 73 74 75 77 77 78 79 80 81 82 83 84 85 86 86 86 86 87 87 87 87 89 90 90 91 93 94 95 97 98 98 99 100 102 103 104 105 104 102 100 102 101 100 101 101 100 99 99 97 95 95 95 95 95 94 93 93 93
26 26 27 27 27 27 27 28 30 31 33 34 35 37 40 42 44 46 48 51 53 56 58 60 62 64 66 68 70 72 74 75 77 77 78 79 79 80 82 83 84 85 85 86 86 87 86 86 85 84 84 86 89 90 91 93 94 96 98 99 99 100 101 101 101 102 102 102 101 100 99 97 97 99 98 96 96 95 93 91 91 90 91 90 88 88 88 88
25 25 26 26 26 27 28 30 31 32 33 35 37 40 42 44 46 48 51 53 55 57 59 61 63 66 68 70 72 74 75 76 77 78 79 80 81 82 83 83 84 85 85 86 86 86 85 85 85 84 83 85 89 90 91 93 94 95 98 99 99 100 100 101 101 101 101 100 99 99 96 94 96 97 95 94 93 92 91 90 90 90 89 86 85 85 85 84
25 25 25 26 27 28 30 31 31 33 35 37 39 42 44 46 48 51 53 55 57 59 61 63 66 68 70 72 73 75 76 77 78 80 80 82 83 83 84 84 84 85 85 85 85 85 85 85 85 85 84 86 89 91 92 94 95 96 98 99 100 101 100 99 99 100 100 99 97 96 95 93 94 94 94 93 92 91 90 90 91 91 88 85 83 82 82 81
24 25 25 26 28 30 30 31 33 34 37 39 41 44 46 48 51 53 55 57 59 61 63 65 68 70 72 73 74 76 77 78 80 81 82 83 83 84 84 84 85 85 84 84 84 84 85 86 87 87 86 87 90 92 94 95 97 97 98 99 100 99 97 96 96 98 99 99 97 95 94 93 92 91 90 90 89 89 88 89 90 89 86 84 82 80 79 78
24 25 26 27 29 30 31 33 35 37 39 41 43 46 49 51 53 55 57 59 61 63 66 68 70 71 73 74 76 77 78 80 81 82 83 83 84 84 85 85 85 85 84 83 84 84 86 87 88 89 88 88 91 93 94 96 97 97 97 98 98 97 95 93 93 96 99 99 96 94 93 92 91 89 88 87 86 86 85 87 88 86 83 82 80 78 77 76
Wind_Direction
232 229 229 229 227 224 222 223 224 225 224 225 227 229 232 234 238 239 238 238 238 238 239 240 241 242 243 244 245 246 246 247 248 250 251 252 253 255 256 257 258 259 261 262 264 265 266 267 268 269 270 271 272 272 273 273 273 274 274 274 274 275 276 276 277 278 279 280 282 283 283 283 284 285 286 286 286 286 285 286 288 288 286 285 284 286 287 287
231 230 229 228 227 225 224 223 223 224 225 225 227 228 232 234 236 238 239 239 240 240 240 241 241 242 243 244 245 245 246 247 249 250 252 253 253 254 255 257 258 260 261 263 264 266 267 268 269 269 270 271 272 272 272 273 272 273 273 274 275 275 276 277 278 280 281 282 283 284 284 283 283 285 285 286 286 285 286 288 288 286 285 285 287 288 288 286
229 229 230 228 227 226 225 225 225 225 225 226 227 228 230 232 235 236 237 239 240 241 241 241 242 242 243 243 244 245 246 247 249 250 251 253 253 254 255 256 257 259 261 264 265 267 268 268 269 269 270 270 271 271 271 271 272 272 273 274 275 276 277 278 280 281 282 283 284 284 284 284 284 285 285 286 286 286 287 288 286 286 287 287 287 286 285 284
227 228 229 228 227 227 226 227 226 226 226 226 227 228 229 231 233 234 236 238 240 241 241 241 241 242 242 243 244 245 246 246 247 249 250 251 252 254 255 256 258 260 263 265 266 267 267 267 267 267 267 267 268 269 269 270 271 272 273 274 276 277 279 280 282 283 283 284 284 284 284 284 285 286 286 286 286 287 287 286 287 288 288 286 286 285 285 284
226 227 228 228 228 227 227 228 228 227 226 225 226 227 229 230 232 233 235 237 238 240 240 239 240 241 241 242 243 244 245 244 245 246 247 248 250 253 256 259 262 264 265 265 265 265 265 265 265 265 265 265 266 267 268 270 272 273 274 276 278 279 281 282 284 284 284 284 284 283 284 285 286 287 286 286 287 286 286 287 288 287 287 287 287 287 285 283
225 227 228 228 228 228 228 229 229 228 226 225 226 227 229 230 231 232 233 234 235 238 239 238 238 239 241 242 243 244 245 245 245 246 248 250 253 256 259 262 263 263 263 262 262 262 262 263 263 264 265 266 267 268 270 271 273 276 277 279 281 282 283 284 284 284 284 284 284 284 285 286 287 287 287 287 286 287 288 288 288 287 288 288 288 287 285 283
225 227 227 228 229 228 229 229 229 229 227 227 227 228 229 229 229 229 230 231 233 235 238 239 239 239 242 244 244 245 245 246 247 249 252 255 258 260 261 262 261 260 259 259 260 260 261 262 263 265 266 268 269 271 273 275 277 279 280 281 281 282 283 283 284 284 285 285 285 286 286 287 287 287 287 287 287 288 289 289 289 290 290 290 289 288 286 284
225 227 227 228 228 227 229 230 228 227 227 227 227 227 227 227 227 228 229 231 233 235 238 239 239 239 241 243 243 245 247 249 251 253 256 258 260 261 260 259 259 258 258 259 260 261 262 263 265 267 269 271 273 275 277 279 280 280 281 281 281 281 282 283 284 285 286 286 287 287 287 287 288 288 288 288 289 289 290 291 291 291 291 290 289 288 287 286
225 227 226 227 226 226 228 227 224 224 225 225 226 225 225 226 225 226 229 231 234 235 236 237 237 236 236 237 237 240 244 247 250 252 254 255 255 254 254 255 256 257 259 260 261 263 265 267 269 271 273 275 277 279 279 280 280 280 281 281 281 282 283 284 285 286 287 287 288 288 287 288 288 287 288 289 290 290 291 292 292 292 291 290 288 288 287 287
225 225 224 225 225 224 224 221 220 221 222 223 223 223 224 224 224 225 228 231 234 234 232 233 233 234 235 236 237 239 241 242 244 246 248 249 250 251 253 255 256 258 260 262 264 267 269 271 273 275 277 278 279 279 279 279 280 280 281 281 282 283 284 285 286 287 287 288 288 288 288 288 288 288 289 289 290 291 292 293 292 292 290 289 288 288 288 287
223 221 221 224 222 220 218 217 218 218 218 218 219 219 221 222 223 225 228 231 235 235 232 230 232 235 238 239 240 240 242 244 246 248 248 250 252 253 254 256 258 260 263 265 268 270 272 274 276 278 279 279 279 280 280 280 280 280 281 282 283 285 286 286 287 288 288 288 288 288 288 288 287 288 289 290 291 293 293 293 292 291 290 289 288 288 287 287
219 216 219 221 217 214 214 216 217 215 215 215 216 218 220 222 224 227 230 233 237 238 235 232 231 235 238 240 242 242 244 245 248 250 252 254 255 256 257 259 261 264 267 269 271 272 274 276 277 278 279 280 280 280 280 280 280 281 283 284 285 286 287 287 288 288 288 288 288 289 288 288 288 289 289 290 292 293 293 292 292 291 290 290 289 288 287 286
214 213 217 216 211 210 212 214 214 214 214 214 217 219 221 223 225 227 229 232 235 236 234 232 231 234 238 241 244 245 246 247 249 251 253 256 259 261 263 264 266 268 270 272 273 274 276 277 278 279 279 281 281 281 281 281 282 283 284 285 286 287 287 287 287 287 288 288 288 289 289 289 289 289 290 292 293 292 291 292 292 292 291 291 290 289 289 288
210 212 213 211 207 207 209 210 210 211 209 209 211 216 220 223 224 226 227 229 231 233 233 233 234 237 240 243 245 247 248 250 252 254 258 262 264 266 267 268 270 271 273 274 275 276 277 278 279 280 281 281 282 282 282 283 284 285 286 286 287 287 287 288 288 287 287 288 288 289 290 290 290 289 290 293 293 291 291 291 292 292 292 291 291 290 290 290
206 209 210 207 204 204 205 206 206 204 201 199 206 218 227 230 231 234 236 237 237 237 237 238 238 240 242 244 246 247 250 253 255 260 266 269 269 269 270 271 272 274 275 277 278 279 280 280 281 282 282 282 283 284 284 284 285 286 287 287 287 288 287 287 288 288 288 288 289 289 290 291 291 291 292 293 292 291 291 291 291 290 290 291 291 291 291 290
204 206 207 205 202 203 205 206 203 201 196 191 204 222 227 230 231 231 233 235 236 236 237 238 240 242 244 246 248 250 253 256 261 267 271 272 271 272 273 274 275 277 279 280 281 281 281 282 282 282 283 284 284 285 285 285 286 287 288 288 287 287 287 287 287 288 289 289 289 290 291 291 291 292 294 294 292 292 291 291 290 290 289 290 290 291 290 290
203 204 204 201 201 203 204 204 201 197 190 184 201 217 219 220 222 223 226 229 231 234 236 238 241 243 246 248 251 254 258 262 266 270 271 271 273 274 276 277 279 281 282 283 283 282 282 282 282 283 284 285 285 286 287 287 287 287 288 288 288 288 287 286 286 288 289 289 289 290 290 290 290 293 295 295 294 293 292 291 291 291 290 290 289 289 289 289
202 203 201 198 200 203 202 200 197 190 188 194 207 215 218 220 222 224 226 229 232 235 237 240 243 246 249 252 256 260 263 266 268 269 271 273 275 278 280 282 282 283 284 284 283 283 283 283 283 284 285 286 287 287 287 288 288 288 288 288 288 288 288 287 287 289 288 289 290 290 290 289 290 292 294 295 294 293 293 293 293 292 292 291 289 288 288 288
201 201 199 198 201 203 201 199 197 191 192 206 215 218 221 222 224 226 228 231 234 237 241 244 247 250 254 257 260 263 265 267 269 271 274 277 280 282 283 284 283 283 284 284 284 283 284 285 285 286 287 287 288 288 288 288 289 289 289 288 287 287 287 287 289 290 289 289 290 290 290 289 289 291 293 293 293 293 294 295 294 293 293 292 291 290 288 287
201 201 198 198 199 198 197 197 199 199 198 206 216 222 225 226 228 230 233 236 239 242 246 249 252 255 258 261 264 266 269 271 273 276 278 281 283 284 284 284 283 283 283 284 285 285 286 286 287 288 288 288 289 289 289 289 290 289 289 289 288 287 287 287 290 291 290 290 290 289 289 289 289 291 292 292 292 293 294 294 294 293 293 292 292 291 290 289
201 200 198 197 196 193 193 196 203 210 210 209 214 222 228 232 235 237 239 242 244 248 252 254 257 260 263 266 269 271 274 276 277 279 282 283 283 283 283 283 283 284 284 285 286 287 288 288 288 289 289 289 290 290 290 290 290 290 289 289 289 288 288 289 290 290 290 290 290 289 289 289 290 291 291 291 292 293 293 293 293 292 292 292 292 292 291 291
199 198 196 195 193 191 194 201 210 218 222 223 223 225 230 235 238 241 243 246 251 255 258 260 263 266 269 272 274 276 278 279 281 282 283 282 281 281 282 282 284 285 286 287 287 288 288 289 289 290 291 291 291 291 291 290 289 289 289 289 289 289 289 289 289 289 289 289 289 289 290 290 290 291 290 290 291 291 292 292 291 291 291 291 291 290 290 290
197 197 196 195 193 193 197 204 209 214 220 226 230 231 234 238 241 246 249 253 256 259 261 264 268 270 273 275 277 278 280 281 283 282 281 281 280 281 282 284 285 286 286 287 288 288 289 290 291 293 293 293 292 292 291 290 290 289 289 289 289 289 289 289 289 288 288 288 288 288 289 290 290 290 290 290 290 291 291 291 290 290 290 289 289 289 289 289
195 195 195 197 196 198 204 208 211 214 218 225 231 236 239 243 247 251 254 257 259 262 265 269 272 274 276 278 279 280 281 282 282 281 280 280 281 282 283 285 286 286 287 287 288 290 291 291 292 293 293 293 292 292 291 291 291 290 290 289 289 290 290 290 289 288 288 288 288 288 288 288 288 288 288 289 290 290 290 290 289 289 288 288 288 287 287 287
193 193 195 199 202 206 212 215 217 219 224 230 235 239 242 245 250 253 257 260 264 267 270 273 276 277 279 280 281 281 281 280 280 280 280 281 282 283 285 286 286 287 288 289 290 291 292 292 293 293 292 292 291 291 291 290 290 290 290 291 291 291 290 290 289 289 288 288 288 289 289 288 287 287 288 288 288 289 289 288 287 287 287 287 286 286 286 286
192 195 197 201 205 210 217 222 221 223 229 235 239 243 245 249 253 257 261 266 270 272 274 277 279 280 281 281 281 280 280 279 279 280 281 282 283 285 286 287 288 289 289 290 291 292 292 293 293 293 292 292 292 291 291 291 291 292 292 292 292 292 291 290 289 289 289 288 289 290 289 289 288 288 288 287 287 287 287 286 285 285 285 285 284 284 284 284
194 197 200 204 208 214 222 227 228 230 236 241 246 250 251 253 258 262 268 271 273 275 278 281 282 283 282 281 279 279 279 280 280 281 283 284 285 286 287 288 289 290 290 291 292 292 293 293 293 293 293 292 292 292 292 293 293 293 293 293 292 292 292 291 291 291 291 290 291 290 290 290 290 290 289 288 288 287 285 285 284 284 284 284 284 283 283 283
196 199 204 209 212 217 222 227 231 234 238 242 248 253 255 258 263 269 272 274 276 279 282 284 284 283 282 280 279 279 280 281 283 284 285 286 287 288 288 289 290 290 291 292 293 293 293 293 293 293 293 293 293 293 294 294 294 293 293 293 293 293 292 292 292 292 292 292 292 291 290 290 290 290 290 289 288 287 286 286 285 285 285 284 284 283 283 282
199 203 208 211 214 217 221 224 228 232 236 242 249 254 258 263 268 272 275 277 278 281 284 284 283 282 282 281 281 281 282 283 285 286 287 288 288 289 290 290 291 291 292 293 294 294 294 294 293 293 294 294 294 294 294 294 294 293 293 293 293 293 293 293 293 292 292 293 292 291 291 291 291 291 291 291 290 289 288 287 287 287 286 285 285 284 283 283
204 208 212 214 216 219 222 225 229 233 239 246 252 257 262 266 269 272 275 277 279 282 284 284 284 284 284 283 284 284 285 286 287 288 289 289 290 291 292 293 293 294 294 295 295 295 295 295 295 295 294 294 294 295 295 294 294 294 294 293 293 293 293 293 292 292 292 293 293 293 292 292 292 292 292 291 291 290 289 289 289 288 287 287 286 285 285 285
207 210 213 216 220 223 226 229 233 238 244 251 256 261 264 267 269 271 274 276 279 280 282 283 284 284 285 286 286 288 289 290 290 291 291 292 293 293 294 295 295 295 295 295 295 295 295 295 296 295 294 295 295 295 295 295 295 295 295 294 294 294 293 293 293 293 293 294 294 293 293 292 292 292 291 291 291 290 290 290 290 289 288 287 287 287 286 286
210 212 215 219 224 228 230 234 239 243 249 254 258 262 265 267 269 271 272 274 276 279 281 282 284 285 286 288 289 290 291 292 292 293 293 294 295 295 295 295 295 295 295 295 295 295 295 295 295 295 294 295 296 295 295 295 296 295 295 295 295 294 293 294 294 293 293 293 293 293 293 292 291 291 291 291 290 291 291 291 289 288 288 288 287 287 286 285
215 218 221 225 230 234 237 241 244 248 252 255 259 261 264 266 268 269 271 274 277 279 281 283 284 286 287 289 290 292 292 293 293 294 294 295 295 295 295 295 295 295 295 295 295 295 295 295 295 294 294 295 295 295 295 295 295 295 295 295 295 294 294 293 293 292 292 292 292 292 292 292 292 291 291 290 291 291 291 290 289 288 288 288 287 286 286 285
218 222 227 231 235 239 242 245 248 250 253 256 258 259 260 263 266 269 272 276 278 280 281 283 284 286 288 290 291 292 293 293 294 294 295 295 295 295 295 295 295 295 295 295 295 295 295 295 295 295 295 295 295 295 295 295 295 295 295 295 295 294 294 294 293 293 292 292 292 292 292 292 292 292 291 291 291 291 290 289 289 289 289 288 287 287 286 286
220 225 229 233 237 240 243 246 249 251 253 254 255 257 260 264 268 271 274 276 278 280 282 284 286 288 289 291 291 292 293 293 294 295 295 295 295 294 294 295 295 295 296 296 296 296 297 297 296 296 296 296 296 296 296 296 296 296 296 295 295 295 295 295 295 295 294 294 294 293 292 292 291 290 291 291 291 290 289 289 289 289 289 288 287 287 286 285
225 228 231 235 238 241 244 247 249 251 252 253 256 260 264 269 272 274 275 277 278 281 283 285 287 289 290 291 292 293 293 293 294 295 295 295 295 295 295 296 296 297 297 297 297 297 298 298 298 298 297 297 297 297 297 296 296 297 297 297 297 297 297 296 296 296 295 295 295 295 293 292 291 291 292 292 291 290 290 290 289 289 288 287 286 286 286 286
230 233 235 238 241 244 246 249 251 253 255 257 260 264 268 272 273 275 276 278 280 283 285 287 288 289 290 291 292 293 293 294 294 294 295 295 296 296 297 297 297 297 297 298 298 298 298 298 297 297 297 297 298 297 297 297 297 297 297 297 298 297 297 297 297 296 295 295 296 295 294 293 293 293 294 293 292 291 290 290 289 288 288 287 287 287 287 286
234 237 239 242 244 247 249 252 253 256 259 262 265 268 270 272 274 276 278 281 283 285 287 288 289 290 291 292 292 293 293 294 295 296 296 296 297 297 298 298 298 299 299 299 298 298 298 298 297 297 297 297 297 297 297 297 297 297 297 297 297 296 296 296 296 296 295 295 295 295 294 293 293 294 294 294 293 293 292 292 291 290 290 290 289 288 287 286
237 240 242 244 247 249 251 254 256 258 261 264 267 269 271 273 275 278 281 283 285 287 288 289 290 291 292 292 293 294 295 296 297 297 298 298 298 299 299 299 299 299 299 299 299 299 299 299 298 298 298 298 298 298 298 298 298 297 297 297 297 297 296 296 296 296 296 297 297 296 295 295 296 296 296 295 295 294 294 292 292 292 292 291 290 289 288 287
239 241 243 246 248 250 253 255 258 260 263 265 268 270 273 276 279 281 283 285 286 288 289 290 291 292 293 294 295 296 297 298 298 299 299 299 300 300 300 300 300 300 300 299 299 300 300 300 301 300 300 300 300 300 300 300 300 300 299 300 300 299 299 298 298 298 298 299 299 299 299 299 299 298 297 296 295 294 293 293 293 293 292 291 290 290 289 288
239 241 244 248 250 252 255 258 260 263 266 269 272 275 277 279 281 283 285 287 288 289 290 291 292 294 295 296 297 298 298 299 299 299 300 300 301 300 300 300 300 300 301 301 301 301 302 302 302 302 301 301 301 301 301 301 301 301 301 301 301 300 299 298 298 298 298 298 299 298 298 299 299 298 297 296 296 295 294 294 295 294 293 292 292 291 289 289
242 244 247 251 255 257 260 262 265 268 271 274 276 279 280 282 284 285 287 288 290 291 292 293 295 296 297 298 299 299 299 300 300 301 301 301 301 301 301 301 301 302 302 303 303 303 302 302 302 302 301 301 301 301 301 301 301 301 300 301 301 300 299 298 298 297 297 297 297 297 298 300 300 299 298 298 297 296 296 297 296 295 295 294 293 292 291 291
247 250 253 257 259 262 264 267 270 273 275 278 280 281 283 284 286 287 289 290 291 293 295 296 297 298 299 299 300 300 301 302 302 302 302 302 302 302 303 303 304 304 304 304 304 304 303 303 303 303 303 303 302 302 302 302 302 301 301 301 301 300 299 298 298 298 298 299 298 298 299 300 300 300 299 299 298 298 299 299 299 298 297 296 295 294 293 292
252 256 259 261 264 267 269 271 274 276 278 280 282 283 284 286 287 289 291 292 294 296 298 299 299 300 300 301 302 302 303 303 303 303 303 303 304 304 305 305 305 305 305 305 305 305 305 305 305 304 304 303 303 302 302 302 302 302 301 301 301 300 300 300 300 300 300 301 301 301 302 302 302 301 300 300 300 300 301 301 300 300 299 298 297 296 296 295
259 261 264 266 269 271 273 275 278 279 281 282 283 284 286 288 290 292 294 296 297 299 300 301 301 302 303 303 304 304 304 304 304 304 305 305 306 306 306 306 306 306 307 307 306 306 306 306 306 305 305 305 305 304 304 304 304 303 303 303 304 303 303 303 303 303 303 304 305 305 304 304 303 302 301 301 301 301 301 301 301 300 300 299 299 298 298 297
264 266 269 271 273 275 277 279 280 280 281 283 285 287 290 292 294 296 297 299 300 301 302 303 304 304 305 305 305 305 305 305 306 306 306 307 307 307 307 308 308 308 308 308 307 307 307 307 307 307 308 307 307 307 307 307 307 306 306 306 307 306 306 306 306 306 306 306 307 305 304 304 304 302 301 301 301 301 301 300 300 299 298 297 297 297 297 297
268 271 273 274 275 277 279 279 279 280 282 285 289 291 293 295 297 299 300 301 302 303 304 305 305 306 306 306 306 306 307 307 307 307 307 307 308 308 309 310 310 310 309 309 308 308 308 308 308 309 309 309 308 308 309 309 309 309 308 308 309 309 308 308 308 307 307 307 306 305 304 305 304 303 302 301 300 300 299 299 298 297 296 295 295 296 296 296
272 273 274 275 276 277 278 278 280 283 287 290 293 295 297 299 300 302 303 304 304 305 305 306 306 307 307 308 308 308 308 308 308 308 309 309 310 311 312 311 311 310 310 310 310 310 310 309 309 309 310 310 309 310 310 310 310 310 310 310 310 309 309 308 308 308 307 307 307 306 305 305 304 302 301 301 300 300 300 299 299 297 297 296 297 297 296 296
272 273 274 276 276 277 279 282 285 289 292 294 296 298 300 302 303 304 305 305 306 306 307 308 308 309 309 309 309 309 309 309 310 310 311 312 313 313 313 312 311 311 311 311 311 311 311 310 310 310 311 311 311 311 311 311 310 310 310 310 310 310 310 310 310 309 308 307 306 305 305 305 304 303 303 304 303 304 304 303 302 300 299 300 300 299 298 297
272 274 275 276 277 279 283 287 291 293 295 297 299 301 302 303 304 305 305 306 307 308 309 310 310 310 310 310 310 310 310 311 312 313 314 314 314 313 313 313 313 312 312 312 312 312 312 312 312 313 314 314 312 312 312 312 311 311 311 312 312 311 312 312 311 310 309 307 306 307 308 307 306 306 307 307 306 306 306 305 304 303 302 302 302 301 300 299
274 276 277 278 281 284 288 292 294 295 297 299 301 302 303 304 304 305 306 307 309 310 310 311 311 310 310 311 311 312 313 313 314 314 315 315 314 314 314 314 314 314 314 314 314 314 314 314 314 315 315 315 314 313 313 313 313 313 313 313 312 312 312 312 312 312 310 309 309 310 310 309 309 308 308 307 307 307 307 306 304 303 304 304 304 303 302 301
277 278 279 282 286 289 292 293 294 296 299 301 302 303 304 305 306 307 308 310 311 311 311 311 311 311 312 312 313 314 314 315 315 315 315 315 315 315 315 315 316 315 315 316 316 316 316 316 316 316 316 316 315 314 314 314 313 314 314 313 312 312 313 315 316 315 312 311 311 312 311 310 310 310 309 308 308 308 308 307 305 305 306 306 306 305 303 302
Height
10605 10608 10611 10614 10617 10622 10624 10626 10629 10632 10635 10638 10641 10644 10646 10648 10650 10652 10656 10657 10658 10662 10664 10665 10669 10671 10673 10675 10677 10679 10680 10681 10682 10683 10684 10685 10686 10686 10686 10685 10685 10685 10685 10685 10684 10684 10684 10684 10683 10682 10681 10680 10679 10678 10676 10676 10675 10673 10671 10669 10668 10668 10667 10666 10665 10663 10662 10660 10657 10655 10654 10652 10646 10642 10645 10644 10638 10635 10634 10635 10639 10639 10633 10626 10625 10630 10629 10626
10603 10606 10609 10611 10614 10618 10620 10623 10626 10629 10632 10635 10638 10642 10644 10645 10647 10649 10652 10654 10656 10659 10660 10663 10666 10668 10670 10672 10673 10675 10676 10678 10679 10680 10681 10681 10682 10681 10681 10681 10681 10680 10680 10680 10680 10680 10679 10679 10678 10677 10676 10675 10674 10672 10671 10669 10669 10668 10665 10664 10663 10663 10662 10659 10660 10658 10655 10654 10651 10647 10644 10642 10641 10639 10637 10637 10633 10627 10628 10630 10630 10628 10625 10622 10621 10626 10625 10619
10601 10604 10606 10608 10611 10614 10617 10620 10623 10626 10629 10632 10636 10639 10641 10642 10644 10646 10649 10651 10653 10656 10658 10660 10662 10664 10667 10668 10670 10671 10673 10674 10675 10676 10677 10677 10677 10676 10676 10677 10676 10676 10676 10676 10675 10675 10674 10674 10673 10672 10671 10670 10668 10667 10666 10664 10663 10662 10659 10658 10658 10657 10656 10653 10654 10654 10649 10647 10645 10640 10635 10633 10634 10634 10631 10630 10626 10621 10623 10623 10619 10619 10620 10618 10616 10618 10619 10613
10599 10601 10603 10606 10609 10612 10615 10618 10621 10624 10627 10630 10633 10635 10637 10639 10642 10644 10646 10649 10651 10653 10655 10657 10659 10661 10663 10664 10666 10668 10670 10671 10672 10672 10672 10672 10672 10671 10672 10672 10672 10672 10672 10672 10671 10670 10669 10669 10668 10667 10666 10665 10664 10662 10662 10659 10657 10656 10653 10653 10653 10652 10650 10647 10648 10647 10642 10640 10638 10632 10629 10627 10626 10626 10623 10623 10620 10615 10615 10616 10614 10614 10613 10611 10609 10610 10614 10609
10596 10598 10601 10603 10607 10610 10613 10616 10619 10622 10624 10627 10629 10631 10634 10637 10639 10642 10644 10647 10648 10649 10652 10654 10656 10658 10659 10661 10663 10665 10666 10667 10668 10667 10667 10667 10668 10668 10668 10669 10669 10669 10668 10667 10666 10665 10664 10664 10663 10662 10661 10660 10659 10657 10657 10655 10652 10650 10648 10648 10647 10646 10644 10641 10641 10639 10635 10633 10629 10625 10622 10622 10620 10617 10615 10615 10614 10609 10607 10609 10609 10607 10606 10604 10604 10602 10603 10602
10594 10596 10599 10602 10605 10608 10611 10613 10616 10619 10622 10624 10627 10629 10631 10634 10637 10640 10642 10644 10645 10646 10648 10650 10652 10654 10656 10658 10660 10662 10662 10663 10664 10663 10663 10664 10665 10666 10666 10666 10665 10664 10664 10663 10662 10661 10660 10659 10658 10657 10656 10655 10654 10652 10651 10649 10647 10645 10642 10643 10642 10639 10638 10635 10634 10632 10628 10625 10621 10618 10616 10616 10614 10608 10607 10607 10605 10603 10601 10603 10602 10600 10599 10598 10596 10594 10592 10592
10591 10593 10597 10601 10604 10607 10609 10611 10615 10618 10620 10622 10625 10627 10630 10633 10635 10638 10639 10641 10642 10644 10645 10648 10650 10652 10653 10655 10657 10658 10658 10660 10660 10660 10661 10662 10662 10662 10662 10661 10661 10660 10659 10658 10658 10657 10656 10654 10653 10652 10651 10650 10649 10647 10647 10644 10643 10640 10636 10637 10636 10633 10632 10629 10627 10626 10622 10617 10614 10611 10609 10608 10607 10601 10599 10598 10598 10597 10596 10595 10595 10593 10592 10590 10587 10585 10583 10581
10589 10592 10597 10601 10603 10605 10606 10610 10614 10617 10619 10621 10623 10626 10628 10630 10633 10635 10637 10638 10640 10642 10644 10646 10648 10650 10651 10653 10654 10655 10656 10657 10657 10657 10658 10659 10658 10658 10658 10657 10656 10655 10654 10654 10653 10652 10651 10650 10648 10648 10646 10645 10644 10643 10641 10639 10637 10634 10631 10630 10628 10627 10626 10624 10621 10619 10615 10611 10607 10604 10601 10601 10599 10595 10591 10590 10591 10591 10590 10588 10588 10586 10583 10582 10578 10576 10575 10574
10588 10592 10596 10599 10601 10603 10605 10609 10613 10614 10616 10618 10621 10624 10626 10629 10631 10633 10634 10636 10638 10640 10642 10644 10645 10646 10648 10649 10651 10652 10653 10653 10654 10654 10655 10655 10654 10654 10653 10652 10651 10651 10650 10649 10648 10647 10646 10645 10643 10643 10641 10640 10638 10637 10635 10633 10631 10629 10626 10623 10621 10621 10619 10618 10615 10613 10608 10604 10601 10596 10592 10593 10591 10588 10585 10584 10584 10584 10584 10582 10580 10578 10575 10573 10570 10568 10568 10567
10587 10592 10595 10597 10599 10602 10605 10608 10610 10612 10614 10617 10619 10622 10624 10627 10629 10630 10632 10634 10636 10638 10640 10641 10642 10644 10645 10647 10648 10649 10650 10650 10651 10651 10651 10650 10650 10649 10649 10648 10647 10646 10645 10644 10643 10643 10641 10639 10638 10637 10636 10635 10633 10631 10629 10627 10625 10623 10621 10617 10615 10615 10612 10611 10609 10606 10602 10597 10595 10589 10583 10584 10584 10581 10580 10578 10578 10577 10577 10576 10573 10570 10567 10564 10562 10562 10561 10560
10587 10591 10593 10595 10598 10601 10603 10606 10608 10610 10613 10615 10618 10620 10623 10625 10627 10628 10630 10632 10634 10636 10638 10639 10640 10642 10643 10644 10645 10646 10646 10647 10647 10647 10647 10646 10645 10645 10645 10644 10643 10642 10641 10640 10639 10638 10636 10634 10633 10632 10630 10629 10627 10624 10622 10621 10619 10617 10615 10611 10609 10609 10605 10604 10603 10599 10596 10591 10587 10582 10575 10574 10576 10575 10574 10573 10573 10572 10569 10567 10565 10561 10558 10555 10555 10555 10554 10553
10586 10590 10592 10594 10597 10599 10601 10604 10606 10609 10611 10614 10616 10618 10621 10623 10625 10627 10628 10630 10632 10634 10635 10637 10638 10640 10641 10642 10642 10643 10643 10644 10644 10643 10643 10642 10642 10641 10640 10640 10638 10638 10636 10635 10634 10633 10631 10629 10628 10626 10624 10622 10620 10618 10615 10614 10613 10611 10609 10604 10602 10603 10598 10596 10596 10592 10589 10585 10580 10576 10567 10563 10568 10568 10567 10568 10568 10565 10562 10559 10557 10553 10550 10548 10546 10546 10545 10544
10585 10588 10590 10593 10595 10598 10600 10602 10605 10608 10610 10613 10615 10617 10620 10622 10624 10625 10627 10629 10630 10632 10633 10635 10636 10637 10638 10639 10639 10639 10640 10640 10640 10640 10639 10639 10638 10637 10636 10635 10634 10633 10632 10631 10629 10627 10626 10624 10622 10620 10618 10616 10614 10611 10609 10607 10606 10604 10602 10599 10595 10595 10592 10588 10588 10586 10583 10579 10574 10570 10559 10551 10558 10561 10559 10563 10563 10558 10554 10551 10549 10545 10542 10540 10538 10537 10536 10535
10584 10586 10589 10591 10594 10596 10599 10601 10604 10607 10610 10612 10615 10617 10619 10621 10622 10624 10626 10627 10629 10630 10631 10632 10634 10634 10635 10636 10636 10636 10636 10636 10636 10636 10636 10635 10634 10633 10632 10631 10629 10628 10627 10626 10623 10621 10619 10617 10615 10613 10611 10610 10607 10604 10602 10600 10599 10597 10595 10593 10589 10587 10586 10581 10579 10580 10578 10574 10569 10566 10555 10541 10543 10550 10553 10558 10556 10549 10546 10545 10542 10538 10534 10531 10529 10528 10527 10526
10582 10585 10587 10590 10592 10595 10598 10600 10603 10606 10609 10611 10614 10616 10617 10619 10620 10622 10624 10626 10627 10628 10629 10630 10631 10632 10633 10633 10633 10633 10633 10633 10633 10633 10632 10631 10630 10629 10628 10626 10625 10623 10621 10620 10617 10615 10613 10611 10609 10607 10604 10603 10601 10598 10595 10593 10592 10590 10587 10585 10583 10580 10578 10576 10571 10570 10571 10569 10563 10559 10552 10537 10529 10535 10546 10552 10548 10540 10537 10537 10535 10532 10528 10524 10521 10520 10518 10516
10580 10583 10586 10588 10591 10594 10597 10600 10603 10605 10607 10610 10613 10615 10617 10618 10620 10622 10623 10625 10626 10627 10627 10628 10629 10629 10630 10630 10630 10630 10630 10630 10629 10629 10628 10627 10626 10625 10623 10622 10620 10618 10616 10614 10611 10609 10607 10605 10603 10601 10599 10596 10595 10592 10589 10587 10586 10584 10580 10577 10576 10574 10571 10569 10567 10564 10562 10561 10558 10553 10549 10535 10520 10523 10534 10539 10538 10532 10528 10527 10526 10524 10521 10518 10514 10511 10509 10507
10579 10581 10584 10587 10590 10593 10596 10600 10602 10604 10606 10609 10612 10615 10616 10617 10619 10620 10622 10623 10623 10624 10625 10626 10626 10627 10627 10627 10627 10627 10627 10626 10625 10625 10623 10622 10621 10620 10618 10617 10614 10612 10610 10608 10606 10603 10601 10598 10596 10595 10593 10590 10588 10587 10582 10579 10579 10578 10575 10571 10567 10566 10563 10560 10561 10561 10555 10552 10551 10547 10544 10532 10516 10517 10524 10525 10523 10520 10517 10516 10515 10513 10511 10509 10506 10503 10501 10498
10578 10580 10584 10587 10589 10592 10596 10599 10601 10603 10605 10608 10611 10613 10614 10615 10616 10618 10619 10620 10621 10622 10622 10623 10623 10624 10624 10624 10624 10624 10623 10622 10621 10620 10619 10618 10616 10614 10613 10611 10609 10607 10605 10602 10599 10598 10595 10591 10590 10590 10588 10584 10581 10580 10577 10572 10570 10569 10569 10567 10561 10558 10555 10549 10552 10557 10550 10544 10543 10538 10536 10529 10514 10512 10519 10517 10511 10507 10505 10505 10504 10501 10500 10497 10495 10493 10492 10490
10577 10580 10583 10586 10589 10592 10596 10598 10600 10602 10604 10607 10609 10611 10612 10612 10614 10615 10617 10618 10619 10619 10620 10620 10621 10621 10621 10621 10621 10620 10619 10618 10617 10615 10614 10613 10611 10609 10607 10605 10604 10602 10599 10597 10593 10591 10590 10585 10583 10583 10581 10579 10575 10572 10570 10566 10563 10561 10560 10560 10557 10553 10549 10541 10542 10548 10543 10539 10538 10530 10525 10522 10511 10508 10513 10510 10503 10498 10495 10494 10492 10489 10487 10484 10481 10480 10479 10479
10577 10580 10583 10586 10589 10592 10595 10597 10599 10600 10603 10605 10607 10608 10609 10610 10612 10614 10615 10616 10616 10617 10617 10618 10618 10618 10617 10617 10616 10615 10614 10613 10612 10611 10609 10608 10606 10604 10602 10600 10598 10596 10594 10592 10588 10584 10584 10579 10577 10577 10575 10572 10569 10565 10563 10559 10557 10555 10552 10550 10549 10546 10543 10536 10534 10537 10533 10530 10531 10523 10517 10513 10505 10505 10507 10501 10496 10492 10488 10485 10482 10478 10475 10472 10468 10464 10463 10464
10577 10580 10582 10585 10589 10591 10594 10596 10598 10600 10602 10603 10605 10607 10608 10610 10611 10612 10612 10613 10614 10614 10615 10615 10615 10614 10613 10613 10612 10610 10609 10608 10607 10606 10605 10603 10601 10599 10597 10595 10592 10590 10587 10587 10583 10578 10576 10573 10570 10570 10569 10565 10562 10558 10556 10553 10549 10547 10544 10542 10540 10536 10535 10532 10528 10527 10524 10521 10520 10512 10508 10505 10499 10499 10499 10494 10490 10485 10481 10477 10473 10469 10464 10461 10457 10452 10449 10448
10577 10579 10582 10585 10588 10590 10592 10595 10597 10600 10601 10602 10604 10606 10607 10608 10609 10609 10610 10611 10612 10612 10612 10611 10611 10610 10609 10608 10607 10606 10605 10603 10602 10602 10600 10599 10597 10594 10592 10590 10587 10585 10581 10579 10578 10573 10570 10567 10563 10562 10561 10558 10554 10551 10549 10546 10543 10539 10536 10534 10532 10527 10525 10525 10522 10518 10515 10514 10511 10503 10499 10496 10491 10491 10489 10485 10483 10479 10474 10470 10464 10459 10455 10450 10446 10442 10439 10436
10577 10579 10582 10584 10587 10589 10591 10593 10596 10598 10599 10601 10603 10604 10605 10606 10607 10607 10607 10608 10609 10609 10608 10608 10607 10606 10605 10604 10603 10602 10600 10599 10598 10597 10596 10594 10592 10590 10587 10584 10582 10580 10576 10573 10572 10568 10564 10561 10557 10554 10552 10549 10546 10543 10541 10538 10535 10531 10528 10526 10524 10520 10517 10516 10513 10510 10507 10505 10502 10497 10492 10486 10482 10482 10479 10475 10474 10470 10466 10461 10455 10450 10445 10440 10436 10433 10430 10427
10576 10579 10581 10584 10586 10588 10590 10592 10594 10596 10598 10600 10601 10602 10603 10604 10604 10605 10605 10605 10606 10605 10605 10604 10603 10602 10601 10600 10598 10598 10597 10595 10594 10593 10591 10589 10587 10585 10582 10579 10577 10574 10570 10568 10566 10562 10557 10554 10552 10549 10544 10541 10537 10535 10533 10530 10526 10522 10519 10517 10516 10512 10508 10505 10502 10501 10500 10496 10492 10489 10484 10479 10475 10472 10470 10467 10465 10461 10456 10451 10444 10438 10433 10429 10426 10423 10421 10419
10576 10578 10581 10584 10586 10587 10589 10591 10593 10595 10596 10598 10600 10601 10601 10602 10602 10602 10602 10602 10602 10602 10601 10600 10599 10598 10597 10596 10595 10594 10593 10591 10590 10588 10586 10584 10581 10579 10576 10573 10572 10569 10564 10562 10560 10556 10551 10547 10545 10541 10537 10534 10529 10527 10525 10522 10519 10515 10510 10508 10505 10503 10500 10494 10490 10488 10489 10487 10483 10478 10471 10467 10464 10462 10462 10460 10456 10453 10447 10440 10433 10427 10423 10419 10414 10411 10410 10409
10575 10578 10580 10583 10585 10586 10588 10589 10591 10593 10595 10596 10597 10598 10599 10599 10599 10599 10599 10599 10598 10598 10597 10596 10595 10594 10593 10592 10591 10590 10589 10587 10586 10583 10581 10579 10576 10574 10571 10567 10565 10563 10559 10556 10553 10549 10545 10540 10537 10533 10529 10525 10521 10519 10516 10512 10511 10507 10502 10498 10494 10491 10488 10484 10479 10476 10477 10476 10475 10470 10457 10450 10450 10450 10451 10450 10447 10444 10438 10429 10422 10417 10412 10408 10404 10401 10399 10398
10575 10577 10580 10582 10584 10585 10586 10588 10589 10591 10593 10594 10595 10596 10597 10597 10596 10596 10596 10596 10595 10594 10594 10592 10591 10590 10589 10588 10587 10586 10584 10582 10580 10578 10576 10574 10571 10568 10566 10562 10559 10556 10552 10550 10547 10543 10538 10533 10529 10525 10521 10517 10513 10510 10507 10504 10501 10497 10492 10489 10484 10480 10476 10472 10468 10464 10462 10460 10465 10461 10444 10435 10435 10432 10433 10435 10433 10430 10424 10417 10411 10406 10401 10396 10393 10390 10387 10385
10574 10577 10579 10580 10582 10584 10585 10587 10588 10590 10591 10592 10593 10594 10594 10594 10594 10594 10593 10593 10591 10590 10590 10588 10587 10586 10585 10584 10583 10581 10579 10577 10575 10573 10571 10568 10565 10562 10560 10557 10553 10550 10546 10543 10539 10535 10531 10527 10522 10517 10513 10509 10504 10501 10498 10496 10492 10487 10483 10478 10474 10470 10466 10461 10456 10453 10448 10446 10452 10450 10433 10423 10421 10416 10416 10418 10415 10412 10408 10402 10397 10393 10389 10384 10380 10376 10373 10370
10573 10575 10577 10579 10580 10582 10584 10586 10587 10589 10589 10590 10591 10591 10592 10592 10592 10591 10590 10589 10588 10587 10586 10584 10583 10582 10581 10579 10578 10577 10574 10573 10571 10568 10566 10563 10559 10556 10553 10550 10547 10543 10539 10536 10532 10527 10523 10519 10514 10510 10505 10501 10496 10492 10490 10486 10481 10477 10473 10469 10465 10460 10455 10451 10446 10441 10435 10432 10434 10433 10423 10412 10406 10401 10398 10398 10396 10392 10388 10386 10382 10377 10372 10367 10363 10359 10356 10354
10572 10574 10576 10578 10579 10581 10583 10584 10586 10587 10588 10588 10589 10589 10589 10590 10589 10588 10587 10586 10584 10583 10581 10580 10579 10578 10576 10575 10573 10571 10569 10567 10565 10563 10560 10557 10553 10550 10546 10542 10539 10535 10531 10528 10524 10520 10515 10510 10506 10502 10497 10493 10488 10484 10481 10475 10470 10466 10462 10458 10456 10450 10444 10441 10437 10430 10425 10422 10417 10414 10410 10400 10391 10387 10381 10377 10377 10373 10369 10368 10365 10359 10354 10349 10345 10342 10339 10336
10572 10574 10576 10577 10579 10580 10582 10583 10584 10585 10586 10586 10586 10587 10587 10586 10586 10585 10583 10581 10580 10579 10577 10576 10575 10573 10572 10570 10568 10566 10564 10561 10559 10557 10554 10551 10546 10542 10539 10535 10531 10526 10523 10521 10517 10513 10509 10503 10498 10492 10487 10484 10480 10475 10470 10464 10459 10455 10450 10445 10444 10440 10433 10428 10424 10416 10413 10412 10405 10398 10395 10388 10379 10374 10368 10362 10359 10355 10352 10352 10347 10340 10336 10332 10329 10326 10323 10320
10572 10574 10576 10577 10578 10579 10581 10582 10582 10583 10583 10584 10584 10584 10584 10583 10582 10581 10579 10578 10577 10575 10574 10572 10571 10569 10567 10565 10563 10561 10559 10556 10553 10550 10548 10545 10540 10535 10532 10529 10525 10520 10516 10513 10509 10506 10502 10498 10492 10484 10478 10475 10472 10467 10460 10454 10449 10443 10438 10433 10429 10426 10421 10418 10413 10404 10399 10399 10395 10386 10378 10372 10366 10361 10356 10350 10344 10341 10339 10335 10329 10322 10318 10316 10314 10310 10307 10302
10571 10573 10575 10576 10577 10578 10579 10580 10580 10581 10581 10581 10581 10581 10580 10579 10577 10576 10575 10574 10573 10572 10570 10568 10566 10564 10562 10560 10558 10556 10553 10550 10547 10544 10541 10539 10534 10529 10525 10522 10519 10515 10510 10507 10502 10497 10494 10490 10484 10476 10470 10467 10464 10458 10452 10446 10440 10434 10427 10422 10417 10411 10406 10405 10403 10396 10389 10386 10386 10379 10364 10353 10348 10344 10341 10337 10332 10330 10325 10317 10311 10307 10303 10300 10297 10293 10289 10285
10571 10572 10574 10575 10576 10576 10577 10577 10577 10578 10578 10578 10577 10576 10575 10574 10573 10573 10572 10571 10569 10568 10566 10564 10562 10560 10558 10556 10553 10550 10548 10544 10541 10537 10534 10532 10528 10523 10519 10515 10511 10507 10503 10500 10496 10491 10486 10481 10475 10468 10462 10459 10454 10448 10443 10436 10430 10425 10418 10411 10406 10398 10389 10387 10385 10381 10376 10372 10375 10371 10355 10342 10333 10325 10322 10321 10321 10317 10309 10300 10294 10291 10288 10283 10278 10275 10270 10266
10570 10571 10572 10573 10574 10574 10574 10575 10575 10575 10575 10574 10573 10572 10571 10571 10570 10569 10568 10567 10566 10564 10561 10559 10558 10556 10553 10551 10548 10545 10542 10538 10535 10531 10526 10524 10522 10517 10513 10510 10505 10500 10495 10491 10487 10483 10478 10471 10464 10457 10451 10447 10443 10437 10431 10424 10417 10413 10407 10399 10393 10385 10376 10370 10367 10363 10356 10352 10359 10359 10345 10334 10324 10312 10308 10308 10307 10302 10293 10287 10282 10276 10272 10266 10260 10256 10252 10249
10569 10570 10571 10571 10572 10572 10572 10572 10572 10572 10571 10570 10570 10569 10569 10568 10567 10566 10565 10563 10562 10559 10557 10555 10553 10551 10549 10545 10542 10539 10535 10532 10530 10526 10521 10516 10513 10510 10506 10502 10498 10493 10487 10482 10477 10473 10470 10463 10454 10446 10438 10433 10431 10426 10419 10413 10406 10399 10394 10388 10381 10372 10362 10353 10349 10348 10339 10330 10337 10340 10329 10319 10309 10299 10298 10295 10290 10285 10278 10273 10268 10262 10257 10250 10243 10239 10235 10232
10568 10569 10569 10570 10570 10570 10570 10570 10569 10569 10568 10568 10568 10567 10566 10565 10564 10562 10560 10559 10557 10555 10553 10551 10548 10546 10544 10540 10536 10532 10529 10525 10522 10520 10517 10511 10507 10502 10498 10494 10490 10485 10479 10474 10468 10463 10462 10457 10447 10438 10429 10422 10419 10414 10407 10402 10396 10389 10383 10378 10371 10361 10350 10340 10332 10329 10324 10316 10319 10321 10312 10302 10293 10285 10283 10280 10272 10267 10264 10259 10252 10246 10240 10233 10227 10223 10218 10214
10566 10567 10567 10567 10567 10567 10567 10567 10567 10567 10567 10566 10566 10564 10563 10562 10560 10558 10556 10554 10553 10551 10549 10546 10543 10540 10537 10535 10531 10527 10524 10520 10515 10512 10509 10505 10500 10496 10491 10486 10481 10476 10470 10465 10459 10451 10449 10448 10442 10432 10422 10414 10409 10404 10397 10392 10387 10380 10373 10368 10364 10354 10341 10334 10324 10312 10305 10302 10304 10305 10299 10291 10284 10275 10266 10260 10253 10247 10243 10239 10232 10226 10221 10214 10207 10203 10199 10194
10565 10565 10565 10565 10565 10565 10566 10565 10565 10565 10564 10563 10563 10561 10559 10558 10556 10554 10552 10551 10549 10546 10544 10541 10537 10535 10531 10528 10525 10521 10517 10514 10510 10506 10501 10497 10493 10488 10483 10477 10472 10467 10461 10455 10450 10442 10436 10435 10432 10423 10412 10404 10398 10392 10385 10379 10374 10369 10362 10356 10353 10344 10330 10322 10316 10300 10287 10284 10284 10282 10280 10277 10272 10264 10252 10241 10234 10228 10222 10216 10212 10210 10204 10196 10188 10182 10177 10172
10563 10563 10563 10563 10563 10563 10563 10563 10563 10562 10561 10560 10559 10557 10556 10554 10552 10550 10548 10547 10544 10541 10539 10535 10532 10529 10525 10522 10519 10515 10511 10507 10503 10498 10494 10489 10485 10479 10474 10469 10463 10457 10452 10446 10440 10433 10426 10421 10419 10412 10402 10393 10385 10378 10371 10366 10359 10352 10347 10343 10337 10329 10316 10306 10302 10291 10273 10267 10264 10255 10254 10258 10254 10244 10234 10225 10217 10210 10202 10196 10195 10193 10185 10177 10170 10163 10158 10153
10561 10561 10561 10561 10561 10561 10561 10561 10560 10559 10558 10557 10555 10554 10552 10550 10549 10547 10544 10542 10539 10536 10533 10530 10527 10524 10520 10517 10513 10509 10505 10500 10496 10491 10486 10481 10477 10472 10466 10461 10455 10448 10442 10437 10430 10424 10417 10410 10406 10399 10391 10383 10375 10367 10359 10353 10347 10337 10332 10331 10324 10314 10303 10290 10287 10283 10269 10259 10252 10238 10234 10240 10238 10226 10216 10209 10201 10190 10183 10179 10177 10173 10164 10157 10151 10143 10137 10133
10559 10559 10559 10559 10559 10559 10558 10558 10557 10556 10555 10554 10552 10550 10549 10547 10545 10542 10540 10537 10534 10531 10528 10525 10522 10519 10515 10512 10508 10503 10498 10494 10489 10484 10479 10473 10468 10463 10458 10452 10447 10440 10434 10427 10420 10413 10407 10402 10397 10390 10381 10373 10366 10359 10350 10344 10339 10327 10320 10321 10316 10304 10292 10279 10270 10267 10262 10257 10247 10232 10225 10225 10221 10209 10195 10188 10182 10172 10165 10162 10157 10151 10144 10137 10130 10123 10117 10112
10557 10557 10557 10557 10557 10556 10556 10555 10554 10553 10552 10550 10549 10547 10544 10542 10540 10538 10535 10533 10530 10527 10523 10520 10517 10513 10509 10505 10501 10497 10492 10487 10482 10477 10471 10465 10459 10454 10448 10442 10437 10430 10423 10417 10410 10403 10395 10389 10385 10380 10372 10363 10353 10346 10340 10334 10329 10317 10306 10307 10305 10293 10281 10270 10259 10249 10245 10244 10235 10223 10218 10216 10208 10195 10180 10168 10161 10154 10148 10143 10135 10128 10122 10115 10108 10103 10099 10094
10555 10555 10555 10555 10554 10554 10553 10553 10551 10550 10548 10547 10545 10542 10540 10538 10536 10534 10531 10528 10525 10522 10519 10515 10511 10507 10503 10499 10494 10490 10485 10479 10474 10469 10463 10457 10450 10444 10438 10432 10427 10420 10414 10407 10400 10393 10385 10376 10369 10365 10361 10355 10345 10335 10328 10324 10320 10309 10295 10292 10291 10282 10268 10258 10249 10237 10229 10227 10220 10207 10201 10202 10195 10180 10167 10155 10145 10139 10134 10126 10117 10109 10101 10093 10087 10083 10079 10073
10553 10553 10553 10552 10552 10551 10550 10549 10548 10546 10545 10543 10541 10539 10537 10534 10532 10529 10527 10524 10521 10517 10514 10510 10506 10501 10497 10492 10487 10483 10478 10472 10466 10461 10455 10449 10442 10435 10429 10423 10417 10410 10404 10397 10389 10382 10375 10366 10357 10350 10345 10339 10332 10324 10315 10308 10305 10297 10285 10278 10274 10266 10254 10242 10233 10223 10213 10209 10206 10193 10179 10180 10179 10165 10153 10144 10134 10127 10122 10113 10104 10095 10085 10075 10068 10064 10059 10054
10551 10550 10550 10549 10549 10548 10547 10545 10544 10543 10541 10539 10537 10535 10533 10530 10528 10525 10522 10519 10516 10512 10508 10504 10499 10495 10490 10486 10481 10475 10470 10464 10458 10452 10446 10440 10434 10427 10421 10414 10407 10400 10393 10386 10379 10372 10365 10357 10348 10339 10332 10323 10315 10310 10301 10291 10285 10278 10269 10262 10256 10248 10238 10227 10215 10206 10196 10190 10190 10181 10164 10160 10161 10148 10137 10132 10123 10115 10110 10103 10094 10084 10074 10065 10057 10051 10045 10039
10548 10548 10547 10546 10545 10544 10543 10542 10541 10539 10537 10535 10533 10531 10528 10526 10523 10521 10517 10514 10510 10506 10502 10498 10493 10489 10484 10479 10473 10467 10461 10455 10449 10444 10438 10432 10426 10419 10412 10404 10397 10390 10383 10375 10368 10361 10355 10348 10339 10331 10323 10312 10302 10297 10290 10280 10272 10263 10253 10247 10240 10231 10224 10214 10202 10192 10183 10174 10172 10167 10154 10146 10142 10130 10121 10117 10110 10103 10099 10093 10084 10074 10064 10056 10050 10044 10037 10029
10545 10545 10544 10543 10542 10541 10540 10539 10537 10536 10534 10532 10529 10527 10524 10522 10519 10516 10512 10509 10505 10501 10497 10492 10487 10482 10477 10471 10466 10460 10454 10447 10441 10435 10429 10422 10416 10410 10402 10395 10387 10380 10372 10365 10357 10349 10343 10337 10330 10325 10317 10305 10293 10286 10279 10270 10262 10252 10241 10234 10227 10218 10210 10203 10193 10182 10171 10161 10153 10147 10142 10137 10127 10115 10109 10104 10094 10087 10083 10077 10068 10060 10051 10044 10039 10033 10025 10017
10543 10542 10541 10540 10539 10538 10537 10535 10534 10532 10530 10528 10525 10523 10520 10517 10514 10511 10507 10503 10499 10495 10490 10486 10481 10475 10469 10463 10458 10452 10446 10440 10432 10426 10419 10412 10405 10399 10393 10386 10379 10371 10362 10354 10347 10339 10332 10326 10319 10315 10310 10297 10284 10277 10270 10260 10253 10244 10233 10224 10216 10207 10197 10188 10178 10167 10156 10148 10140 10131 10128 10124 10110 10097 10092 10087 10077 10069 10064 10056 10047 10039 10033 10029 10025 10018 10010 10003
10540 10540 10539 10537 10536 10535 10533 10532 10530 10528 10526 10524 10521 10519 10515 10513 10509 10506 10502 10498 10494 10489 10484 10479 10474 10468 10462 10456 10450 10444 10437 10431 10424 10416 10410 10403 10396 10389 10382 10375 10368 10361 10353 10344 10337 10329 10321 10314 10306 10301 10298 10288 10274 10265 10258 10249 10241 10233 10223 10212 10201 10192 10185 10176 10165 10152 10140 10133 10126 10117 10112 10107 10096 10083 10075 10068 10060 10053 10047 10038 10028 10020 10015 10014 10011 10003 9995 9988
10538 10537 10536 10534 10533 10531 10530 10528 10526 10524 10522 10520 10517 10514 10511 10508 10504 10500 10497 10492 10488 10483 10478 10473 10467 10461 10455 10448 10442 10435 10428 10421 10415 10408 10401 10395 10387 10380 10373 10366 10358 10350 10342 10334 10326 10317 10309 10302 10294 10287 10283 10277 10263 10253 10246 10236 10228 10221 10211 10200 10190 10181 10175 10168 10156 10138 10123 10114 10110 10104 10096 10088 10081 10073 10065 10057 10049 10041 10034 10024 10013 10006 10002 9998 9994 9988 9981 9974
10535 10534 10533 10531 10530 10528 10526 10524 10522 10520 10518 10516 10513 10510 10506 10503 10499 10495 10491 10486 10482 10477 10471 10466 10460 10454 10447 10441 10434 10427 10420 10413 10406 10400 10393 10386 10379 10371 10362 10355 10347 10339 10331 10324 10315 10307 10297 10290 10282 10274 10270 10265 10254 10243 10235 10224 10215 10210 10202 10190 10179 10170 10164 10158 10146 10126 10107 10098 10093 10088 10081 10072 10065 10058 10051 10046 10040 10032 10024 10012 9999 9994 9991 9986 9979 9973 9967 9962